This demonstration page uses our WeatherBlox Daily Observations layout. Learn more.

Left ArrowRight Arrow

Hourly Observations for March 16, 2016

Temp ( °F °C ) Dew Point ( °F °C ) Humidity (%) Winds ( mph kmh ) Pressure ( in mb ) Visibility ( mi km ) Precip ( " mm )
12:54 am 00:54 Clear 43 6.1 35 1.7 74 74 W 12 19 29.85 1011 10 16 0.00 0.00
1:54 am 01:54 Cloudy 43 6.1 32 0 65 65 W 12 19 29.86 1011 10 16 0.00 0.00
2:54 am 02:54 Mostly Clear 43 6.1 29 -1.7 58 58 WNW 14 22 29.85 1011 10 16 0.00 0.00
3:54 am 03:54 Clear 42 5.6 28 -2.2 58 58 WNW 12 19 29.85 1011 10 16 0.00 0.00
4:54 am 04:54 Clear 38 3.3 28 -2.2 68 68 NW 6 9 29.86 1011 10 16 0.00 0.00
5:54 am 05:54 Clear 36 2.2 26 -3.3 67 67 Calm 29.88 1012 10 16 0.00 0.00
6:54 am 06:54 Clear 37 2.8 27 -2.8 67 67 Calm 29.92 1013 10 16 0.00 0.00
7:54 am 07:54 Sunny 37 2.8 27 -2.8 67 67 W 5 7 29.94 1014 10 16 0.00 0.00
8:54 am 08:54 Sunny 40 4.4 29 -1.7 65 65 NW 5 7 29.96 1015 10 16 0.00 0.00
9:54 am 09:54 Sunny 47 8.3 28 -2.2 48 48 WNW 9 15 29.97 1015 10 16 0.00 0.00
10:54 am 10:54 Sunny 51 10.6 28 -2.2 41 41 WNW 14 22 29.99 1016 10 16 0.00 0.00
11:54 am 11:54 Sunny 55 12.8 27 -2.8 34 34 NW 13 20 29.99 1016 10 16 0.00 0.00
12:54 pm 12:54 Sunny 57 13.9 25 -3.9 29 29 WNW 13 20 29.97 1015 10 16 0.00 0.00
1:54 pm 13:54 Partly Cloudy 59 15 25 -3.9 27 27 WNW 18 30 29.95 1014 10 16 0.00 0.00
2:54 pm 14:54 Sunny 59 15 23 -5 25 25 WNW 13 20 29.93 1014 10 16 0.00 0.00
3:54 pm 15:54 Sunny 59 15 20 -6.7 22 22 NW 18 30 29.92 1013 10 16 0.00 0.00
4:54 pm 16:54 Mostly Cloudy with Light Rain 54 12.2 27 -2.8 35 35 NW 32 52 29.94 1014 10 16 0.00 0.03
5:54 pm 17:54 Cloudy with Light Rain 52 11.1 24 -4.4 34 34 W 15 24 29.98 1015 10 16 0.00 0.03
6:54 pm 18:54 Mostly Sunny 52 11.1 26 -3.3 37 37 W 14 22 29.98 1015 10 16 0.00 0.03
7:54 pm 19:54 Clear 49 9.4 28 -2.2 44 44 W 10 17 29.97 1015 10 16 0.00 0.00
8:54 pm 20:54 Clear 47 8.3 29 -1.7 50 50 W 10 17 29.99 1016 10 16 0.00 0.00
9:54 pm 21:54 Clear 44 6.7 30 -1.1 58 58 W 8 13 30.00 1016 10 16 0.00 0.00
10:54 pm 22:54 Clear 41 5 31 -0.6 67 67 WSW 9 15 30.00 1016 10 16 0.00 0.00
11:54 pm 23:54 Clear 42 5.6 30 -1.1 62 62 W 12 19 29.99 1016 10 16 0.00 0.00

Powered by AerisWeather